Weather in Gorniy

Russia / Zabaykalsky Krai     51°33′19″N   113°02′13″E
temp.,
°C
wind,
m/s
gust,
m/s
humid.,
%
clouds,
%
prec.,
mm/h
press.,
hPa
HPBL,
m
15 april, thu
thu1500:00−1nw2240100 0.0 101333
03:00−3w2553100 0.0 1013167
06:00−4w2362100 0.0 101259
09:00−2wnw3651100 0.0 1011742
12:00+4nnw3525100 0.0 10092838
15:00+5nw4521100 0.0 10073298
18:00+4nw5621100 0.0 10092801
21:000wnw353150 0.0 101292
16 april, fri
fri1600:00−3nw11493 0.0 101412
03:00−5wsw11570 0.0 101716
06:00−6wsw22610 0.0 101921
09:00−1wnw35470 0.0 1020571
12:00+4nw45237 0.0 10182626
15:00+6nw561980 0.0 10172800
18:00+7wnw572079 0.0 10162279
21:00+1wsw33385 0.0 101733
17 april, sat
sat1700:00−1sw36503 0.0 1017100
03:00−2sw37525 0.0 1017131
06:00−2sw255192 0.0 101690
09:00+3wsw36345 0.0 1014358
12:00+10wsw57268 0.0 10101002
15:00+15sw58195 0.0 10062163
18:00+16w57195 0.0 10032824
21:00+9wsw11355 0.0 100510
18 april, sun
sun1800:00+5sw11465 0.0 100710
03:00+3ssw115466 0.0 100710
06:00+1sw115982 0.0 100910
09:00+6wsw114554 0.0 1008172
12:00+12sw113185 0.0 1005747
15:00+14wnw2324100 0.0 10021341
18:00+15nw4524100 0.0 10022595
21:00+11nnw41035100 0.1 1004499
19 april, mon
mon1900:00+6wnw51141100 0.0 10111094
03:00+2wnw6124690 0.0 1016984
06:000wnw511460 0.0 1019656
09:00+1wnw611260 0.0 10211282
12:00+5nw69150 0.0 10201862
15:00+9nw47100 0.0 10182560
18:00+9w35115 0.0 10172442
21:00+4ese22196 0.0 101813